NOAA 19 (33591 NORAD) Tracking and Keplerian Element Data

This shows tracking and keplerian element data for the satellite.

Feedback or suggestion? Click here.




ElementValue
Catalog33591
NameNOAA 19
Epoch Orbit50328
Epoch Day319.60768277
Epoch Year2018
RAAN300.7686
Inclination99.16
Eccentricity0.0012996
Argument of Perigee261.7473
Mean Anonmoly98.2224
Mean Motion14.12318016
Decay Rate5.9E-07
L11 33591U 09005A 18319.60768277 .00000059 00000-0 57152-4 0 9998
L22 33591 99.1600 300.7686 0012996 261.7473 98.2224 14.12318016503287

Live tracking and technical data element details for NOAA 19 (NORAD 33591). NOAA 19 can be tracked NOW for your location showing map with azimuth and elevation plus other details from your city location.

Track the satellite on the map from your city or location and see movement details for azimuth, elevation, latitude, longitude, range, height, and movement on the map or in text.







IsCatalogInMostPopularTable: catalog: 33591, numindb: 241
Update: records affected: 1



GetName: 33591 NOAA 19

Hit Count: updated at: Fri, 16 Nov 2018 09:41:13 GMT